�������l�o���
Date,Time,MP-1(��Sv/h),MP-2(��Sv/h),MP-3(��Sv/h),MP-4(��Sv/h),MP-5(��Sv/h),MP-6(��Sv/h),MP-7(��Sv/h),����,����(m/s),���J
2015/06/02,00:00,0.559,0.331,0.595,0.550,0.479,0.254,0.228,��쐼,4.7,��
2015/06/02,00:10,0.559,0.330,0.593,0.553,0.482,0.255,0.228,��쐼,4.2,��
2015/06/02,00:20,0.556,0.332,0.598,0.551,0.478,0.253,0.229,�쐼,4.3,��
2015/06/02,00:30,0.562,0.330,0.593,0.555,0.485,0.254,0.229,��쐼,2.5,��
2015/06/02,00:40,0.558,0.332,0.598,0.550,0.477,0.253,0.228,��쐼,3.4,��
2015/06/02,00:50,0.563,0.331,0.593,0.555,0.483,0.254,0.228,�쐼,3.3,��
2015/06/02,01:00,0.556,0.333,0.599,0.553,0.478,0.253,0.228,�쐼,2.7,��
2015/06/02,01:10,0.564,0.331,0.592,0.556,0.482,0.255,0.228,�쐼,1.7,��
2015/06/02,01:20,0.557,0.332,0.600,0.553,0.479,0.255,0.227,��쐼,1.3,��
2015/06/02,01:30,0.564,0.330,0.592,0.554,0.483,0.255,0.228,��,1.0,��
2015/06/02,01:40,0.556,0.333,0.598,0.551,0.478,0.254,0.228,��쐼,1.9,��
2015/06/02,01:50,0.560,0.331,0.592,0.555,0.483,0.254,0.227,�쐼,2.4,��
2015/06/02,02:00,0.558,0.332,0.599,0.551,0.478,0.254,0.228,�쐼,2.2,��
2015/06/02,02:10,0.562,0.331,0.593,0.555,0.483,0.255,0.227,���쐼,1.0,��
2015/06/02,02:20,0.558,0.332,0.599,0.552,0.478,0.254,0.229,�k�k��,0.5,��
2015/06/02,02:30,0.563,0.332,0.593,0.555,0.482,0.254,0.227,-,CALM,��
2015/06/02,02:40,0.559,0.331,0.598,0.552,0.479,0.254,0.228,�k,0.7,��
2015/06/02,02:50,0.562,0.333,0.594,0.557,0.484,0.254,0.228,�k�k��,0.5,��
2015/06/02,03:00,0.557,0.331,0.601,0.551,0.478,0.255,0.227,�k��,1.1,��
2015/06/02,03:10,0.560,0.333,0.594,0.557,0.484,0.254,0.229,�k�k��,1.1,��
2015/06/02,03:20,0.559,0.329,0.598,0.552,0.477,0.255,0.228,�k��,1.2,��
2015/06/02,03:30,0.559,0.333,0.593,0.555,0.482,0.253,0.228,��,0.8,��
2015/06/02,03:40,0.558,0.331,0.596,0.550,0.479,0.256,0.229,��쓌,0.7,��
2015/06/02,03:50,0.560,0.333,0.594,0.554,0.485,0.254,0.228,��쐼,1.9,��
2015/06/02,04:00,0.562,0.330,0.596,0.553,0.478,0.256,0.229,�쐼,1.7,��
2015/06/02,04:10,0.557,0.333,0.593,0.556,0.484,0.255,0.229,�쐼,2.4,��
2015/06/02,04:20,0.561,0.330,0.597,0.551,0.477,0.255,0.227,��,2.4,��
2015/06/02,04:30,0.558,0.332,0.593,0.555,0.482,0.254,0.229,��,1.8,��
2015/06/02,04:40,0.561,0.330,0.596,0.550,0.478,0.255,0.229,��쐼,2.4,��
2015/06/02,04:50,0.558,0.331,0.590,0.556,0.484,0.254,0.229,��,1.6,��
2015/06/02,05:00,0.559,0.331,0.598,0.551,0.478,0.254,0.229,��쐼,2.2,��
2015/06/02,05:10,0.558,0.331,0.592,0.555,0.482,0.254,0.228,��쐼,2.2,��
2015/06/02,05:20,0.562,0.331,0.598,0.550,0.479,0.253,0.228,��,2.3,��
2015/06/02,05:30,0.558,0.332,0.593,0.555,0.484,0.254,0.228,��,1.9,��
2015/06/02,05:40,0.564,0.331,0.598,0.549,0.480,0.254,0.227,��쐼,1.1,��
2015/06/02,05:50,0.556,0.332,0.593,0.557,0.479,0.255,0.227,-,CALM,��
2015/06/02,06:00,0.562,0.331,0.597,0.550,0.483,0.256,0.229,-,CALM,��
2015/06/02,06:10,0.557,0.333,0.596,0.555,0.477,0.255,0.229,-,CALM,��
2015/06/02,06:20,0.558,0.330,0.594,0.551,0.483,0.255,0.228,-,CALM,��
2015/06/02,06:30,0.560,0.331,0.596,0.554,0.480,0.255,0.229,��쐼,0.5,��
2015/06/02,06:40,0.558,0.332,0.592,0.551,0.477,0.255,0.228,��,0.9,��
2015/06/02,06:50,0.562,0.330,0.599,0.550,0.482,0.254,0.227,��,0.6,��
2015/06/02,07:00,0.556,0.327,0.592,0.555,0.478,0.255,0.229,��쐼,1.1,��
2015/06/02,07:10,0.561,0.330,0.588,0.550,0.479,0.253,0.229,��쐼,1.3,��
2015/06/02,07:20,0.560,0.332,0.597,0.545,0.482,0.255,0.227,�쐼,1.4,��
2015/06/02,07:30,0.555,0.330,0.594,0.554,0.477,0.255,0.225,�쐼,2.0,��
2015/06/02,07:40,0.562,0.328,0.590,0.553,0.477,0.253,0.227,��,2.1,��
2015/06/02,07:50,0.560,0.328,0.587,0.548,0.484,0.254,0.228,��,2.8,��
2015/06/02,08:00,0.553,0.331,0.587,0.547,0.480,0.254,0.228,��,2.5,��
2015/06/02,08:10,0.558,0.333,0.588,0.543,0.474,0.253,0.228,��,2.5,��
2015/06/02,08:20,0.562,0.331,0.598,0.544,0.474,0.253,0.227,��,3.0,��
2015/06/02,08:30,0.558,0.328,0.595,0.544,0.475,0.254,0.227,��,4.9,��
2015/06/02,08:40,0.554,0.329,0.593,0.548,0.474,0.255,0.225,��,6.0,��
2015/06/02,08:50,0.560,0.330,0.589,0.549,0.474,0.254,0.226,��쓌,5.3,��
2015/06/02,09:00,0.562,0.327,0.593,0.551,0.475,0.254,0.225,��,6.1,��
2015/06/02,09:10,0.557,0.329,0.598,0.550,0.475,0.254,0.226,��,6.7,��
2015/06/02,09:20,0.554,0.328,0.596,0.552,0.477,0.254,0.226,��,7.2,��
2015/06/02,09:30,0.552,0.327,0.592,0.551,0.476,0.253,0.225,��,7.9,��
2015/06/02,09:40,-,0.328,0.589,0.550,0.478,0.254,0.224,��,7.0,��
2015/06/02,09:50,-,0.329,0.588,0.551,0.477,0.253,0.226,��,6.2,��
2015/06/02,10:00,-,0.329,0.595,0.550,0.479,0.253,0.224,��쐼,7.5,��
2015/06/02,10:10,-,0.330,0.597,0.553,0.479,0.254,0.225,��,7.2,��
2015/06/02,10:20,-,0.330,0.598,0.552,0.479,0.254,0.225,��,7.7,��
2015/06/02,10:30,-,0.331,0.595,0.551,0.480,0.254,0.226,��,7.6,��
2015/06/02,10:40,-,0.330,0.593,0.551,0.480,0.255,0.226,��,8.2,��
2015/06/02,10:50,-,0.331,0.594,0.553,0.480,0.254,0.226,��,10.0,��
2015/06/02,11:00,-,0.330,0.592,0.553,0.480,0.255,0.226,��,9.9,��
2015/06/02,11:10,-,0.329,0.592,0.552,0.479,0.254,0.229,��,9.7,��
2015/06/02,11:20,-,0.330,0.591,0.549,0.479,0.256,0.230,��,9.4,��
2015/06/02,11:30,-,0.329,0.588,0.551,0.479,0.258,0.228,��,11.1,��
2015/06/02,11:40,-,0.328,0.590,0.551,0.477,0.256,0.227,��,9.7,��
2015/06/02,11:50,-,0.333,0.590,0.548,0.477,0.255,0.227,��,10.5,��
2015/06/02,12:00,-,0.334,0.594,0.558,0.479,0.255,0.229,��,10.7,��
2015/06/02,12:10,-,0.332,0.597,0.558,0.486,0.255,0.229,��,9.1,��
2015/06/02,12:20,-,0.328,0.597,0.556,0.484,0.256,0.227,��,9.4,��
2015/06/02,12:30,-,0.332,0.593,0.550,0.478,0.254,0.229,��쐼,10.6,��
2015/06/02,12:40,-,0.334,0.590,0.552,0.477,0.255,0.229,��,9.7,��
2015/06/02,12:50,-,0.331,0.597,0.556,0.475,0.254,0.228,��쐼,9.7,��
2015/06/02,13:00,-,0.330,0.598,0.553,0.484,0.255,0.227,��쐼,9.2,��
2015/06/02,13:10,-,0.329,0.596,0.550,0.482,0.255,0.226,��쐼,6.5,��
2015/06/02,13:20,-,0.329,0.595,0.550,0.480,0.254,0.227,��쐼,8.0,��
2015/06/02,13:30,-,0.328,0.592,0.548,0.481,0.254,0.229,��,8.4,��
2015/06/02,13:40,-,0.330,0.592,0.550,0.480,0.252,0.229,��,8.9,��
2015/06/02,13:50,-,0.327,0.592,0.550,0.478,0.255,0.228,��,9.2,��
2015/06/02,14:00,-,0.328,0.593,0.549,0.480,0.254,0.226,��,10.2,��
2015/06/02,14:10,-,0.328,0.593,0.550,0.478,0.253,0.226,��,10.0,��
2015/06/02,14:20,-,0.330,0.591,0.549,0.476,0.254,0.228,��쐼,9.5,��
2015/06/02,14:30,-,0.336,0.590,0.551,0.475,0.255,0.229,��쐼,9.5,��
2015/06/02,14:40,-,0.333,0.589,0.558,0.475,0.256,0.228,��,9.6,��
2015/06/02,14:50,-,0.331,0.590,0.556,0.476,0.255,0.227,��,9.9,��
2015/06/02,15:00,-,0.331,0.591,0.553,0.476,0.254,0.226,��쐼,10.8,��
2015/06/02,15:10,0.527,0.329,0.599,0.548,0.476,0.252,0.228,��쐼,9.8,��
2015/06/02,15:20,0.529,0.331,0.598,0.553,0.482,0.252,0.229,��쐼,9.9,��
2015/06/02,15:30,0.526,0.333,0.596,0.557,0.483,0.253,0.226,��쐼,9.5,��
2015/06/02,15:40,0.524,0.333,0.594,0.556,0.479,0.254,0.227,��쐼,10.4,��
2015/06/02,15:50,0.529,0.329,0.594,0.553,0.477,0.254,0.229,��쐼,10.1,��
2015/06/02,16:00,0.531,0.329,0.600,0.548,0.481,0.255,0.227,��쐼,9.9,��
2015/06/02,16:10,0.529,0.332,0.597,0.560,0.483,0.255,0.226,��쐼,9.6,��
2015/06/02,16:20,0.523,0.331,0.593,0.557,0.481,0.255,0.227,��쐼,9.3,��
2015/06/02,16:30,0.530,0.329,0.593,0.551,0.476,0.253,0.229,��,7.8,��
2015/06/02,16:40,0.528,0.328,0.599,0.549,0.480,0.254,0.227,��,7.6,��
2015/06/02,16:50,0.525,0.332,0.597,0.558,0.484,0.253,0.228,��,8.3,��
2015/06/02,17:00,0.531,0.332,0.592,0.555,0.478,0.255,0.229,��,9.2,��
2015/06/02,17:10,0.532,0.330,0.597,0.549,0.479,0.255,0.227,��쐼,10.4,��
2015/06/02,17:20,0.525,0.334,0.598,0.555,0.485,0.254,0.228,��쐼,8.7,��
2015/06/02,17:30,0.530,0.331,0.594,0.556,0.480,0.255,0.228,��쐼,9.2,��
2015/06/02,17:40,0.531,0.330,0.595,0.550,0.478,0.254,0.227,��쐼,7.7,��
2015/06/02,17:50,0.524,0.332,0.600,0.554,0.481,0.254,0.228,��쐼,7.7,��
2015/06/02,18:00,0.527,0.332,0.595,0.558,0.482,0.254,0.229,��쐼,6.9,��
2015/06/02,18:10,0.529,0.330,0.592,0.552,0.477,0.254,0.226,��쐼,7.5,��
2015/06/02,18:20,0.524,0.332,0.601,0.550,0.478,0.254,0.228,��쐼,8.6,��
2015/06/02,18:30,0.527,0.333,0.599,0.557,0.485,0.255,0.227,��,6.9,��
2015/06/02,18:40,0.530,0.330,0.592,0.555,0.479,0.255,0.228,��쐼,8.7,��
2015/06/02,18:50,0.525,0.334,0.599,0.552,0.480,0.254,0.229,��쐼,8.2,��
2015/06/02,19:00,0.532,0.332,0.597,0.555,0.483,0.254,0.227,��,6.6,��
2015/06/02,19:10,0.531,0.331,0.593,0.551,0.478,0.255,0.228,��쐼,6.8,��
2015/06/02,19:20,0.529,0.333,0.601,0.557,0.484,0.253,0.227,��쐼,6.7,��
2015/06/02,19:30,0.532,0.329,0.594,0.556,0.480,0.256,0.229,��쐼,7.3,��
2015/06/02,19:40,0.527,0.332,0.595,0.551,0.482,0.255,0.228,��,5.8,��
2015/06/02,19:50,0.530,0.329,0.599,0.557,0.483,0.255,0.228,��쐼,7.7,��
2015/06/02,20:00,0.530,0.333,0.594,0.552,0.477,0.254,0.228,��쐼,8.1,��
2015/06/02,20:10,0.525,0.332,0.601,0.557,0.482,0.254,0.228,��쐼,7.7,��
2015/06/02,20:20,0.531,0.331,0.596,0.555,0.477,0.254,0.229,��쐼,7.7,��
2015/06/02,20:30,0.527,0.333,0.594,0.554,0.484,0.253,0.228,��쐼,6.0,��
2015/06/02,20:40,0.529,0.330,0.598,0.558,0.482,0.256,0.229,��쐼,5.3,��
2015/06/02,20:50,0.529,0.331,0.591,0.552,0.479,0.254,0.227,��쐼,4.6,��
2015/06/02,21:00,0.526,0.330,0.599,0.556,0.482,0.255,0.229,��쐼,4.5,��
2015/06/02,21:10,0.532,0.333,0.600,0.554,0.476,0.255,0.227,��쐼,4.9,��
2015/06/02,21:20,0.524,0.330,0.595,0.554,0.484,0.255,0.230,��쐼,4.7,��
2015/06/02,21:30,0.530,0.332,0.598,0.557,0.478,0.255,0.227,��쐼,4.8,��
2015/06/02,21:40,0.527,0.331,0.593,0.551,0.482,0.255,0.229,��쐼,4.5,��
2015/06/02,21:50,0.528,0.330,0.599,0.559,0.482,0.256,0.228,��쐼,3.8,��
2015/06/02,22:00,0.530,0.332,0.596,0.552,0.478,0.254,0.228,��쐼,4.3,��
2015/06/02,22:10,0.525,0.330,0.595,0.558,0.484,0.255,0.229,��쐼,4.3,��
2015/06/02,22:20,0.532,0.332,0.601,0.558,0.478,0.255,0.229,��쐼,4.2,��
2015/06/02,22:30,0.527,0.331,0.592,0.553,0.483,0.255,0.227,�쐼,3.5,��
2015/06/02,22:40,0.530,0.332,0.600,0.555,0.478,0.254,0.230,�쐼,3.3,��
2015/06/02,22:50,0.527,0.330,0.594,0.553,0.482,0.255,0.229,��쐼,3.3,��
2015/06/02,23:00,0.525,0.334,0.599,0.558,0.480,0.256,0.230,��쐼,3.3,��
2015/06/02,23:10,0.531,0.331,0.598,0.552,0.481,0.254,0.228,�쐼,4.2,��
2015/06/02,23:20,0.525,0.332,0.596,0.557,0.482,0.255,0.229,�쐼,4.5,��
2015/06/02,23:30,0.530,0.330,0.598,0.552,0.478,0.254,0.227,�쐼,3.9,��
2015/06/02,23:40,0.527,0.332,0.592,0.557,0.482,0.255,0.228,�쐼,4.0,��
2015/06/02,23:50,0.530,0.330,0.599,0.554,0.479,0.254,0.228,�쐼,3.6,��
